This is the latest recevied weather packets stored in our database for station/object F6BIJ-13. If no packets are shown the sender has not sent any weather packets the latest 10 day(s).
| Time | Temp. | Humidity | Pressure | Rain* | Wind** | Luminosity | Snow |
|---|---|---|---|---|---|---|---|
| 1777739437 | 21.67° C | 50% | 1018.9 hPa | 0 mm | - | - | - |
| 1777737996 | 22.22° C | 54% | 1018.9 hPa | 0 mm | - | - | - |
| 1777737636 | 22.78° C | 51% | 1018.9 hPa | 0 mm | - | - | - |
| 1777737277 | 22.78° C | 52% | 1018.9 hPa | 0 mm | - | - | - |
| 1777736917 | 22.78° C | 52% | 1019 hPa | 0 mm | - | - | - |
| 1777736197 | 23.33° C | 49% | 1019.2 hPa | 0 mm | - | - | - |
| 1777735836 | 22.78° C | 52% | 1019.2 hPa | 0 mm | - | - | - |
| 1777735477 | 22.78° C | 51% | 1019.3 hPa | 0 mm | - | - | - |
| 1777735117 | 22.78° C | 51% | 1019.3 hPa | 0 mm | - | - | - |
| 1777734757 | 23.33° C | 50% | 1019.4 hPa | 0 mm | - | - | - |
| 1777734396 | 23.33° C | 52% | 1019.5 hPa | 0 mm | - | - | - |
| 1777734037 | 23.33° C | 53% | 1019.4 hPa | 0 mm | - | - | - |
| 1777733677 | 23.33° C | 53% | 1019.4 hPa | 0 mm | - | - | - |
| 1777733317 | 22.78° C | 51% | 1019.4 hPa | 0 mm | - | - | - |
| 1777732596 | 23.33° C | 51% | 1019.7 hPa | 0 mm | - | - | - |
| 1777732237 | 23.33° C | 51% | 1019.8 hPa | 0 mm | - | - | - |
| 1777731877 | 23.33° C | 52% | 1019.9 hPa | 0 mm | - | - | - |
| 1777731517 | 23.33° C | 47% | 1019.9 hPa | 0 mm | - | - | - |
| 1777731156 | 23.89° C | 49% | 1020 hPa | 0 mm | - | - | - |
| 1777730797 | 24.44° C | 49% | 1020 hPa | 0 mm | - | - | - |
| 1777730437 | 24.44° C | 47% | 1020.2 hPa | 0 mm | - | - | - |
| 1777730077 | 25.56° C | 44% | 1020.3 hPa | 0 mm | - | - | - |
| 1777729717 | 26.11° C | 45% | 1020.4 hPa | 0 mm | - | - | - |
| 1777728996 | 26.11° C | 46% | 1020.5 hPa | 0 mm | - | - | - |
| 1777728637 | 25.56° C | 49% | 1020.6 hPa | 0 mm | - | - | - |
* Rain latest 24 hours (hover to see other rain measurements)
** Current wind speed in m/s (hover to see current wind gust speed)